Waarnemingen

Advertentie
Mijn weer
Skillinge, Zweden (2625): temperatuur & dauwpunt: 13.08.2018 17:00:00 - 19.08.2018 17:00:00 (CEST)Skillinge, Zweden (2625): windsnelheid & windstoten: 13.08.2018 17:00:00 - 19.08.2018 17:00:00 (CEST)Skillinge, Zweden (2625): windrichting: 13.08.2018 17:00:00 - 19.08.2018 17:00:00 (CEST)Skillinge, Zweden (2625): luchtdruk: 13.08.2018 17:00:00 - 19.08.2018 17:00:00 (CEST)Skillinge, Zweden (2625): zicht: 13.08.2018 17:00:00 - 19.08.2018 17:00:00 (CEST)Skillinge, Zweden (2625): neerslag: 13.08.2018 17:00:00 - 19.08.2018 17:00:00 (CEST)
Datum & Tijd tt [°C] td [°C] ff [km/u] ff [kn] fx [km/u] fx [kn] dd ppp [hPa] vv [km] rr [mm]
19.08.2018 17:00:00 20,2 15,2 20 11 37 20 WZW 1017,0 32 0,0
19.08.2018 16:00:00 21,4 15,5 23 13 45 24 ZW 1017,2 27 0,0
19.08.2018 15:00:00 21,7 15,3 26 14 45 24 WZW 1017,5 39 0,0
19.08.2018 14:00:00 21,0 14,4 23 12 35 19 WZW 1017,7 38 0,0
19.08.2018 13:00:00 21,5 15,3 16 9 35 19 WZW 1018,0 36 0,0
19.08.2018 12:00:00 20,6 15,4 19 11 36 20 WZW 1018,2 34 0,0
19.08.2018 11:00:00 20,7 15,7 22 12 36 20 WZW 1018,2 28 0,0
19.08.2018 10:00:00 20,4 15,4 22 12 36 19 WZW 1018,1 30 0,0
19.08.2018 09:00:00 19,3 15,2 16 9 30 16 WZW 1018,2 23 0,0
19.08.2018 08:00:00 19,1 15,2 10 6 24 13 WZW 1018,1 25 0,0
19.08.2018 07:00:00 18,4 15,3 15 8 29 16 WZW 1017,9 22 0,0
19.08.2018 06:00:00 18,0 14,5 13 7 29 16 W 1018,0 26 0,0
19.08.2018 05:00:00 17,9 14,6 17 9 28 15 WZW 1017,7 28 0,0
19.08.2018 04:00:00 18,3 14,4 16 8 26 14 WZW 1017,9 27 0,0
19.08.2018 03:00:00 17,9 14,2 14 8 33 18 WZW 1018,0 26 0,0
19.08.2018 02:00:00 18,5 15,0 18 10 33 18 WZW 1017,8 25 0,0
19.08.2018 01:00:00 19,4 14,9 21 11 32 18 WZW 1017,9 31 0,0
19.08.2018 00:00:00 20,0 14,4 19 11 28 15 WZW 1018,1 45 0,0
18.08.2018 23:00:00 19,6 14,0 15 8 28 15 ZW 1018,3 47 0,0
18.08.2018 22:00:00 19,2 14,2 11 6 23 12 ZW 1018,2 44 0,0
18.08.2018 21:00:00 18,4 13,7 15 8 34 18 ZW 1018,4 37 0,0
18.08.2018 20:00:00 19,4 13,1 16 9 35 19 WZW 1018,3 47 0,0
18.08.2018 19:00:00 20,0 12,2 21 11 39 21 WZW 1018,3 49 0,0
18.08.2018 18:00:00 20,5 12,0 24 13 43 23 ZW 1018,2 41 0,0
18.08.2018 17:00:00 20,2 11,9 26 14 43 23 ZW 1018,5 44 0,0
18.08.2018 16:00:00 20,5 12,9 29 15 42 23 ZW 1018,6 37 0,0
18.08.2018 15:00:00 21,0 12,4 27 14 42 23 ZW 1018,8 45 0,0
18.08.2018 14:00:00 21,2 11,5 23 12 38 20 ZW 1019,2 50 0,0
18.08.2018 13:00:00 21,4 10,8 18 10 35 19 WZW 1019,2 45 0,0
18.08.2018 12:00:00 21,5 10,9 16 9 31 17 WZW 1019,3 39 0,0
18.08.2018 11:00:00 21,1 10,6 15 8 25 14 WZW 1019,5 39 0,0
18.08.2018 10:00:00 20,3 11,0 13 7 24 13 W 1019,6 30 0,0
18.08.2018 09:00:00 19,4 13,3 9 5 15 8 W 1019,5 32 0,0
18.08.2018 08:00:00 17,7 14,8 7 4 14 8 W 1019,3 25 0,0
18.08.2018 07:00:00 15,3 13,8 4 2 10 5 WNW 1019,0 20 0,0
18.08.2018 06:00:00 13,8 12,9 5 3 10 5 WNW 1018,5 14 0,0
18.08.2018 05:00:00 13,9 13,1 4 2 10 5 WNW 1018,3 14 0,0
18.08.2018 04:00:00 13,4 12,8 4 2 10 5 WNW 1018,1 7 0,0
18.08.2018 03:00:00 13,9 13,3 5 3 9 5 W 1018,0 6 0,0
18.08.2018 02:00:00 14,5 13,9 4 2 9 5 WNW 1018,0 9 0,0
18.08.2018 01:00:00 14,5 13,7 3 2 6 4 W 1017,8 13 0,0
18.08.2018 00:00:00 15,3 14,0 2 1 6 4 WNW 1017,6 26 0,0
17.08.2018 23:00:00 16,2 14,4 3 2 6 4 W 1017,4 43 0,0
17.08.2018 22:00:00 16,8 14,6 2 1 11 6 WNW 1017,0 47 0,0
17.08.2018 21:00:00 17,3 15,1 2 1 19 10 NW 1016,5 50 0,7
17.08.2018 20:00:00 19,4 14,2 7 4 19 11 NW 1015,9 50 0,0
17.08.2018 19:00:00 21,1 14,3 8 5 28 15 WNW 1015,3 50 0,0
17.08.2018 18:00:00 22,9 14,7 10 6 28 15 NW 1014,8 42 0,0
17.08.2018 17:00:00 25,4 14,5 14 8 32 17 WNW 1014,4 41 0,0
17.08.2018 16:00:00 26,2 13,7 20 11 32 17 WZW 1014,3 42 0,0
17.08.2018 15:00:00 22,1 18,7 16 8 21 12 Z 1014,4 13 0,0
17.08.2018 14:00:00 21,5 18,3 12 6 21 11 Z 1014,5 16 0,0
17.08.2018 13:00:00 22,1 17,9 13 7 21 11 ZZW 1014,9 29 0,0
17.08.2018 12:00:00 21,3 18,5 14 8 19 11 Z 1015,1 22 0,0
17.08.2018 11:00:00 21,5 18,3 11 6 19 11 Z 1014,9 25 0,0
17.08.2018 10:00:00 21,3 18,1 12 7 18 10 Z 1014,7 29 0,0
17.08.2018 09:00:00 20,2 17,8 11 6 16 9 ZZW 1014,8 26 0,0
17.08.2018 08:00:00 19,6 17,6 6 4 16 9 ZW 1014,7 21 0,0
17.08.2018 07:00:00 19,4 17,4 10 5 16 9 ZW 1014,5 27 0,0
17.08.2018 06:00:00 18,7 17,0 8 4 17 9 ZW 1014,2 22 0,0
17.08.2018 05:00:00 18,6 16,9 9 5 22 12 ZW 1014,1 23 0,0
17.08.2018 04:00:00 19,2 16,8 9 5 28 15 ZW 1014,3 36 0,0
17.08.2018 03:00:00 19,7 16,9 18 10 28 15 Z 1014,3 33 0,0
17.08.2018 02:00:00 20,3 17,3 16 9 27 15 Z 1014,4 33 0,0
17.08.2018 01:00:00 20,6 17,0 11 6 24 13 Z 1014,7 39 0,0
17.08.2018 00:00:00 20,7 17,1 9 5 24 13 ZZO 1014,9 35 0,0
16.08.2018 23:00:00 20,7 17,1 9 5 21 12 ZZO 1014,8 35 0,0
16.08.2018 22:00:00 20,8 16,8 8 5 19 10 ZO 1015,0 37 0,0
16.08.2018 21:00:00 21,2 16,6 7 4 18 10 ZZO 1015,2 45 0,0
16.08.2018 20:00:00 20,9 16,7 4 2 18 10 Z 1015,2 33 0,0
16.08.2018 19:00:00 21,4 16,6 9 5 20 11 Z 1015,3 27 0,0
16.08.2018 18:00:00 21,6 17,6 12 7 22 12 Z 1015,9 26 0,0
16.08.2018 17:00:00 21,7 18,3 14 8 22 12 Z 1016,3 19 0,0
16.08.2018 16:00:00 22,2 18,2 15 8 22 12 Z 1016,5 21 0,0
16.08.2018 15:00:00 21,8 18,0 16 9 22 12 ZZW 1016,8 14 0,0
16.08.2018 14:00:00 22,5 18,7 14 7 21 11 Z 1017,2 12 0,0
16.08.2018 13:00:00 21,6 18,4 16 8 22 12 Z 1017,4 12 0,0
16.08.2018 12:00:00 22,1 18,7 15 8 22 12 Z 1017,5 10 0,0
16.08.2018 11:00:00 21,7 18,7 12 7 16 9 Z 1017,5 10 0,0
16.08.2018 10:00:00 20,7 18,5 6 4 10 5 ZZW 1017,6 11 0,0
16.08.2018 09:00:00 20,0 18,3 5 3 6 4 ZZW 1017,6 9 0,0
16.08.2018 08:00:00 18,6 18,3 4 2 5 3 Z 1017,6 7 0,0
16.08.2018 07:00:00 17,4 17,2 3 1 5 3 WZW 1017,6 4,7 0,0
16.08.2018 06:00:00 15,8 15,6 4 2 5 3 ZW 1017,6 1,3 0,0
16.08.2018 05:00:00 14,8 14,5 0 0 7 4 N 1017,6 0,2 0,0
16.08.2018 04:00:00 16,1 15,9 3 1 7 4 W 1017,5 0,9 0,0
16.08.2018 03:00:00 15,4 15,1 4 2 6 3 ZZW 1017,4 0,1 0,0
16.08.2018 02:00:00 14,8 14,5 0 0 6 3 N 1017,4 0,1 0,0
16.08.2018 01:00:00 16,0 15,7 4 2 9 5 WZW 1017,4 1,0 0,0
16.08.2018 00:00:00 15,8 15,2 0 0 12 6 N 1017,2 1,9 0,0
15.08.2018 23:00:00 17,4 16,3 6 3 16 8 WZW 1017,1 8 0,0
15.08.2018 22:00:00 18,1 16,6 9 5 19 11 WZW 1017,0 17 0,0
15.08.2018 21:00:00 18,8 15,9 12 7 29 15 WZW 1016,9 46 0,0
15.08.2018 20:00:00 19,6 15,9 10 6 34 18 W 1016,3 48 0,0
15.08.2018 19:00:00 19,8 15,2 16 9 36 20 WZW 1016,0 50 0,0
15.08.2018 18:00:00 21,1 15,2 20 11 42 23 WZW 1015,8 47 0,0
15.08.2018 17:00:00 21,9 14,3 22 12 42 23 WZW 1015,6 42 0,0
15.08.2018 16:00:00 22,3 13,9 26 14 42 23 WZW 1015,4 47 0,0
15.08.2018 15:00:00 23,5 12,8 18 10 34 19 WZW 1015,0 50 0,0
15.08.2018 14:00:00 24,2 12,8 12 7 26 14 W 1014,8 44 0,0
15.08.2018 13:00:00 23,2 12,8 13 7 26 14 W 1014,4 45 0,0
15.08.2018 12:00:00 22,5 13,0 14 7 23 13 W 1014,1 39 0,0
15.08.2018 11:00:00 21,4 14,1 10 5 23 12 NW 1013,8 48 0,0
15.08.2018 10:00:00 19,3 14,5 12 6 25 13 WNW 1013,3 46 0,0
15.08.2018 09:00:00 19,9 15,1 11 6 25 13 WNW 1012,5 35 0,0
15.08.2018 08:00:00 18,2 15,5 7 4 16 9 WNW 1011,9 43 0,0
15.08.2018 07:00:00 18,0 16,0 4 2 11 6 WNW 1011,4 24 0,0
15.08.2018 06:00:00 17,1 15,8 5 3 16 9 WZW 1010,9 15 0,0
15.08.2018 05:00:00 16,9 15,6 5 3 18 10 W 1010,5 19 0,0
15.08.2018 04:00:00 16,7 15,4 8 4 24 13 W 1010,3 17 0,0
15.08.2018 03:00:00 16,6 15,1 12 7 24 13 W 1009,8 23 0,0
15.08.2018 02:00:00 17,0 15,2 12 6 23 12 W 1009,4 29 0,0
15.08.2018 01:00:00 17,5 15,5 12 7 23 12 W 1008,9 36 0,0
15.08.2018 00:00:00 16,8 15,0 11 6 21 11 W 1008,5 49 0,0
14.08.2018 23:00:00 17,1 15,1 9 5 19 10 W 1008,2 50 0,0
14.08.2018 22:00:00 17,7 15,7 5 3 13 7 W 1007,9 50 0,0
14.08.2018 21:00:00 18,4 17,1 4 2 33 18 W 1007,5 14 3,9
14.08.2018 20:00:00 19,9 16,7 10 5 39 21 W 1006,9 11 0,0
14.08.2018 19:00:00 21,0 16,8 16 9 39 21 WZW 1006,2 17 0,0
14.08.2018 18:00:00 20,8 16,6 22 12 36 19 WZW 1006,0 26 0,0
14.08.2018 17:00:00 22,1 15,9 22 12 36 20 WZW 1006,0 28 0,0
14.08.2018 16:00:00 20,7 15,7 24 13 39 21 ZW 1005,9 20 0,0
14.08.2018 15:00:00 18,6 16,0 20 11 39 21 ZZW 1006,0 11 0,0
14.08.2018 14:00:00 20,5 15,7 23 12 37 20 ZW 1006,0 14 0,0
14.08.2018 13:00:00 21,4 16,1 23 13 37 20 ZW 1005,8 14 0,0
14.08.2018 12:00:00 22,0 15,8 21 12 36 19 WZW 1005,4 32 0,0
14.08.2018 11:00:00 22,0 15,4 22 12 36 19 WZW 1005,3 39 0,0
14.08.2018 10:00:00 21,5 16,0 23 12 36 19 WZW 1005,1 31 0,0
14.08.2018 09:00:00 20,6 17,4 16 9 24 13 WZW 1005,0 29 0,0
14.08.2018 08:00:00 18,4 16,9 9 5 13 7 ZW 1004,6 18 0,0
14.08.2018 07:00:00 18,9 17,0 2 1 16 9 Z 1004,5 14 0,0
14.08.2018 06:00:00 18,4 16,6 0 0 27 14 N 1004,5 19 0,0
14.08.2018 05:00:00 18,9 16,7 15 8 34 18 OZO 1004,8 14 0,0
14.08.2018 04:00:00 19,0 16,8 22 12 37 20 OZO 1005,2 23 0,0
14.08.2018 03:00:00 19,1 16,3 23 12 37 20 O 1005,7 30 0,0
14.08.2018 02:00:00 19,1 16,1 29 16 36 20 O 1006,0 38 0,0
14.08.2018 01:00:00 18,9 15,9 28 15 36 20 O 1006,8 42 0,0
14.08.2018 00:00:00 18,6 16,0 29 16 36 19 O 1007,1 32 0,0
13.08.2018 23:00:00 18,5 16,3 24 13 34 18 O 1008,0 38 0,0
13.08.2018 22:00:00 18,3 15,9 25 14 35 19 O 1008,6 39 0,0
13.08.2018 21:00:00 18,1 16,1 28 15 35 19 O 1007,9 35 0,0
13.08.2018 20:00:00 17,8 15,6 28 15 33 18 O 1007,8 40 0,0
13.08.2018 19:00:00 17,8 16,0 22 12 27 14 O 1008,1 26 0,0
13.08.2018 18:00:00 16,7 15,4 13 7 24 13 ONO 1008,9 15 0,0
13.08.2018 17:00:00 16,9 15,6 18 10 24 13 NO 1009,0 10 0,0

tt = temperatuur
td = dauwpunt
ff = windsnelheid
fx = windstoten
dd = windrichting
ppp = luchtdruk
vv = zicht
rr = neerslag

Weerstations in de omgeving